W9IF-4 Weather Reports


Display with metric or nautical units.
time (UTC)temp
F
wind
direction
speed
MPH
gust
MPH
rain 1hr
in
rain 24hr
in
rain mn
in
humidity
%
barometer
mb
20181217201428 67 255 0.0 0.0 0.00 0.00 0.00 1021.0
20181217201328 66 255 0.0 0.0 0.00 0.00 0.00 1021.0
20181217201229 66 255 0.0 0.0 0.00 0.00 0.00 1021.1
20181217201128 66 255 0.0 0.0 0.00 0.00 0.00 1021.1
20181217201028 66 255 0.0 0.0 0.00 0.00 0.00 1021.2
20181217200728 68 255 0.0 0.0 0.00 0.00 0.00 1021.2
20181217200528 67 255 0.0 0.0 0.00 0.00 0.00 1021.3
20181217200428 67 255 0.0 0.0 0.00 0.00 0.00 1021.4
20181217200328 68 255 0.0 0.0 0.00 0.00 0.00 1021.4
20181217200228 67 255 0.0 0.0 0.00 0.00 0.00 1021.4
20181217200128 67 255 0.0 0.0 0.00 0.00 0.00 1021.4
20181217200028 68 255 0.0 0.0 0.00 0.00 0.00 1021.4
20181217195828 67 255 0.0 0.0 0.00 0.00 0.00 1021.4
20181217195728 68 255 0.0 0.0 0.00 0.00 0.00 1021.5
20181217195629 67 255 0.0 0.0 0.00 0.00 0.00 1021.5
20181217195428 67 255 0.0 0.0 0.00 0.00 0.00 1021.5
20181217195328 66 255 0.0 0.0 0.00 0.00 0.00 1021.6
20181217195128 66 255 0.0 0.0 0.00 0.00 0.00 1021.6
20181217195028 66 255 0.0 0.0 0.00 0.00 0.00 1021.6
20181217194928 66 255 0.0 0.0 0.00 0.00 0.00 1021.6
20181217194828 66 255 0.0 0.0 0.00 0.00 0.00 1021.7
20181217194728 66 255 0.0 0.0 0.00 0.00 0.00 1021.7
20181217194528 67 255 0.0 0.0 0.00 0.00 0.00 1021.7
20181217194428 68 255 0.0 0.0 0.00 0.00 0.00 1021.7
20181217194229 67 255 0.0 0.0 0.00 0.00 0.00 1021.8
20181217194129 66 255 0.0 0.0 0.00 0.00 0.00 1021.8
20181217194028 65 255 0.0 0.0 0.00 0.00 0.00 1021.8
20181217193828 66 255 0.0 0.0 0.00 0.00 0.00 1021.8
20181217193728 65 264 0.0 0.0 0.00 0.00 0.00 1021.8
20181217193628 66 262 3.0 0.0 0.00 0.00 0.00 1021.9
20181217193528 66 271 3.0 0.0 0.00 0.00 0.00 1021.9
20181217193428 65 260 0.0 0.0 0.00 0.00 0.00 1021.5
20181217193228 65 269 5.0 0.0 0.00 0.00 0.00 1021.9
20181217193128 66 273 5.0 0.0 0.00 0.00 0.00 1021.9
20181217192928 68 262 5.0 0.0 0.00 0.00 0.00 1021.9
20181217192628 67 226 0.0 0.0 0.00 0.00 0.00 1021.9
20181217192028 65 226 0.0 0.0 0.00 0.00 0.00 1022.0
20181217191928 65 226 0.0 0.0 0.00 0.00 0.00 1022.1
20181217191728 66 226 0.0 0.0 0.00 0.00 0.00 1022.1
20181217191628 66 226 0.0 0.0 0.00 0.00 0.00 1022.1
20181217191528 66 226 0.0 0.0 0.00 0.00 0.00 1022.1
20181217191428 67 226 0.0 0.0 0.00 0.00 0.00 1022.1
20181217191229 67 278 5.0 0.0 0.00 0.00 0.00 1022.1
20181217190928 64 263 0.0 0.0 0.00 0.00 0.00 1022.1
20181217190828 64 263 0.0 0.0 0.00 0.00 0.00 1022.1
20181217190728 64 263 0.0 0.0 0.00 0.00 0.00 1022.2
20181217190628 65 263 0.0 0.0 0.00 0.00 0.00 1022.2
20181217190528 65 263 0.0 0.0 0.00 0.00 0.00 1022.2
20181217190521 65 263 0.0 0.0 0.00 0.00 0.00 1020.7
20181217190428 65 263 0.0 0.0 0.00 0.00 0.00 1020.7
20181217190328 65 263 0.0 0.0 0.00 0.00 0.00 1022.2
20181217190128 65 263 0.0 0.0 0.00 0.00 0.00 1022.2
20181217185928 66 263 0.0 0.0 0.00 0.00 0.00 1022.2
20181217185828 66 263 0.0 0.0 0.00 0.00 0.00 1022.2
20181217185728 66 263 0.0 0.0 0.00 0.00 0.00 1022.2
20181217185628 66 263 0.0 0.0 0.00 0.00 0.00 1022.2
20181217185528 65 263 0.0 0.0 0.00 0.00 0.00 1022.3
20181217185428 65 263 0.0 0.0 0.00 0.00 0.00 1022.4
20181217185328 64 263 0.0 0.0 0.00 0.00 0.00 1022.4
20181217185228 65 269 0.0 0.0 0.00 0.00 0.00 1022.4
20181217185128 65 287 5.0 0.0 0.00 0.00 0.00 1022.5
20181217184728 65 285 3.0 0.0 0.00 0.00 0.00 1022.7
20181217184528 65 249 4.0 0.0 0.00 0.00 0.00 1022.7
20181217184428 65 276 4.0 0.0 0.00 0.00 0.00 1022.7
20181217184128 66 283 5.0 0.0 0.00 0.00 0.00 1022.7
20181217184028 67 280 6.0 0.0 0.00 0.00 0.00 1022.8
20181217183928 66 294 6.0 0.0 0.00 0.00 0.00 1022.8
20181217183728 66 285 5.0 0.0 0.00 0.00 0.00 1022.8
20181217183628 65 273 3.0 0.0 0.00 0.00 0.00 1022.9
20181217183528 66 314 5.0 0.0 0.00 0.00 0.00 1022.8
20181217183228 64 263 6.0 0.0 0.00 0.00 0.00 1022.8
20181217183128 64 294 0.0 0.0 0.00 0.00 0.00 1022.8
20181217183028 64 297 6.0 0.0 0.00 0.00 0.00 1022.8
20181217182928 64 318 6.0 0.0 0.00 0.00 0.00 1022.8
20181217182828 63 304 4.0 0.0 0.00 0.00 0.00 1022.8
20181217182728 63 295 5.0 0.0 0.00 0.00 0.00 1022.7
20181217182628 63 308 6.0 0.0 0.00 0.00 0.00 1022.8
20181217182528 63 304 5.0 0.0 0.00 0.00 0.00 1022.8
20181217182428 63 304 5.0 0.0 0.00 0.00 0.00 1022.8
20181217182128 62 307 6.0 0.0 0.00 0.00 0.00 1022.8
20181217181428 61 322 5.0 0.0 0.00 0.00 0.00 1022.7
20181217181229 61 328 6.0 0.0 0.00 0.00 0.00 1022.6
20181217181128 61 329 6.0 0.0 0.00 0.00 0.00 1022.6
20181217180928 62 314 6.0 0.0 0.00 0.00 0.00 1022.6
20181217180828 62 308 4.0 0.0 0.00 0.00 0.00 1022.6
20181217180628 63 342 0.0 0.0 0.00 0.00 0.00 1022.6
20181217180428 63 342 0.0 0.0 0.00 0.00 0.00 1022.6
20181217180128 64 342 0.0 0.0 0.00 0.00 0.00 1022.7
20181217175928 64 342 0.0 0.0 0.00 0.00 0.00 1022.7
20181217175828 64 342 0.0 0.0 0.00 0.00 0.00 1022.7
20181217175628 63 342 0.0 0.0 0.00 0.00 0.00 1022.6
20181217175428 62 342 0.0 0.0 0.00 0.00 0.00 1022.5
20181217175328 62 342 0.0 0.0 0.00 0.00 0.00 1022.6
20181217175230 62 342 0.0 0.0 0.00 0.00 0.00 1022.5
20181217175128 62 342 0.0 0.0 0.00 0.00 0.00 1022.5
20181217175028 62 342 0.0 0.0 0.00 0.00 0.00 1022.5
20181217174928 62 342 0.0 0.0 0.00 0.00 0.00 1022.4
20181217174628 63 342 0.0 0.0 0.00 0.00 0.00 1022.4
20181217174428 62 342 0.0 0.0 0.00 0.00 0.00 1022.4
20181217174328 62 342 0.0 0.0 0.00 0.00 0.00 1022.4
20181217174228 62 342 0.0 0.0 0.00 0.00 0.00 1022.4
20181217174128 62 342 0.0 0.0 0.00 0.00 0.00 1022.4
20181217174028 61 342 0.0 0.0 0.00 0.00 0.00 1022.4
20181217173928 61 342 0.0 0.0 0.00 0.00 0.00 1022.3
20181217173828 60 342 0.0 0.0 0.00 0.00 0.00 1022.4
20181217173728 61 342 0.0 0.0 0.00 0.00 0.00 1022.4
20181217173628 61 342 0.0 0.0 0.00 0.00 0.00 1022.4
20181217173528 62 342 0.0 0.0 0.00 0.00 0.00 1022.4
20181217173428 61 342 0.0 0.0 0.00 0.00 0.00 1022.5
20181217173328 61 342 0.0 0.0 0.00 0.00 0.00 1022.5
20181217173228 62 342 0.0 0.0 0.00 0.00 0.00 1022.5
20181217173128 61 342 0.0 0.0 0.00 0.00 0.00 1022.5
20181217173028 61 342 0.0 0.0 0.00 0.00 0.00 1022.5
20181217172928 61 342 0.0 0.0 0.00 0.00 0.00 1022.5
20181217172828 61 342 0.0 0.0 0.00 0.00 0.00 1022.5
20181217172728 62 342 0.0 0.0 0.00 0.00 0.00 1022.4
20181217172628 62 342 0.0 0.0 0.00 0.00 0.00 1022.5
20181217172528 62 342 0.0 0.0 0.00 0.00 0.00 1022.5
20181217172428 62 342 0.0 0.0 0.00 0.00 0.00 1022.4
20181217172328 62 342 0.0 0.0 0.00 0.00 0.00 1022.4
20181217172228 61 342 0.0 0.0 0.00 0.00 0.00 1022.4
20181217172128 61 309 5.0 0.0 0.00 0.00 0.00 1022.4
20181217172028 61 311 0.0 0.0 0.00 0.00 0.00 1022.4
20181217171928 61 311 0.0 0.0 0.00 0.00 0.00 1022.4
20181217171728 60 311 3.0 0.0 0.00 0.00 0.00 1022.4
20181217171528 60 305 0.0 0.0 0.00 0.00 0.00 1022.4
20181217171428 60 293 5.0 0.0 0.00 0.00 0.00 1022.4
20181217171328 60 283 7.0 0.0 0.00 0.00 0.00 1022.4
20181217171228 61 315 5.0 0.0 0.00 0.00 0.00 1022.4
20181217171128 61 56 0.0 0.0 0.00 0.00 0.00 1022.4
20181217171028 61 56 0.0 0.0 0.00 0.00 0.00 1022.3
20181217170828 62 56 0.0 0.0 0.00 0.00 0.00 1022.2
20181217170528 63 56 0.0 0.0 0.00 0.00 0.00 1022.1
20181217170228 62 56 0.0 0.0 0.00 0.00 0.00 1022.1
20181217170128 61 56 0.0 0.0 0.00 0.00 0.00 1022.1
20181217170028 61 56 0.0 0.0 0.00 0.00 0.00 1022.1
20181217165928 60 56 0.0 0.0 0.00 0.00 0.00 1022.0
20181217165828 60 56 0.0 0.0 0.00 0.00 0.00 1022.0
20181217165728 60 62 2.0 0.0 0.00 0.00 0.00 1021.9
20181217165628 59 56 4.0 0.0 0.00 0.00 0.00 1021.8
20181217165528 59 52 5.0 0.0 0.00 0.00 0.00 1021.8
20181217165428 59 55 5.0 0.0 0.00 0.00 0.00 1021.8
20181217165328 59 55 3.0 0.0 0.00 0.00 0.00 1021.8
20181217165228 59 58 6.0 0.0 0.00 0.00 0.00 1021.8
20181217164728 59 77 5.0 0.0 0.00 0.00 0.00 1021.8
20181217164328 58 122 0.0 0.0 0.00 0.00 0.00 1021.8
20181217163928 57 108 7.0 0.0 0.00 0.00 0.00 1021.5
20181217163828 57 108 8.0 0.0 0.00 0.00 0.00 1021.4
20181217163728 57 111 8.0 0.0 0.00 0.00 0.00 1021.3
20181217163628 57 105 9.0 0.0 0.00 0.00 0.00 1021.3
20181217163528 57 113 8.0 0.0 0.00 0.00 0.00 1021.2
20181217163428 57 93 9.0 0.0 0.00 0.00 0.00 1019.9
20181217163328 56 104 8.0 0.0 0.00 0.00 0.00 1021.3
20181217163228 57 114 8.0 0.0 0.00 0.00 0.00 1021.3
20181217163128 56 111 8.0 0.0 0.00 0.00 0.00 1021.2
20181217163028 57 111 10.0 0.0 0.00 0.00 0.00 1021.2
20181217162928 56 69 8.0 0.0 0.00 0.00 0.00 1021.2
20181217162728 56 103 10.0 0.0 0.00 0.00 0.00 1021.1
20181217162628 56 96 12.0 0.0 0.00 0.00 0.00 1021.0
20181217162528 56 97 10.0 0.0 0.00 0.00 0.00 1021.0
20181217162428 56 113 11.0 0.0 0.00 0.00 0.00 1021.1
20181217162228 56 138 14.0 0.0 0.00 0.00 0.00 1021.2
20181217161828 56 115 9.0 0.0 0.00 0.00 0.00 1020.8
20181217161728 56 121 9.0 0.0 0.00 0.00 0.00 1020.7
20181217161628 56 83 9.0 0.0 0.00 0.00 0.00 1020.5
20181217161528 55 110 11.0 0.0 0.00 0.00 0.00 1020.5
20181217161428 55 73 12.0 0.0 0.00 0.00 0.00 1020.5
20181217161328 55 77 13.0 0.0 0.00 0.00 0.00 1020.4
20181217161228 55 79 12.0 0.0 0.00 0.00 0.00 1020.4
20181217161128 55 75 13.0 0.0 0.00 0.00 0.00 1020.3
20181217161028 55 37 11.0 0.0 0.00 0.00 0.00 1020.3
20181217160928 55 98 10.0 0.0 0.00 0.00 0.00 1020.3
20181217160828 55 91 9.0 0.0 0.00 0.00 0.00 1020.4
20181217160728 55 62 11.0 0.0 0.00 0.00 0.00 1020.5
20181217160528 55 87 9.0 0.0 0.00 0.00 0.00 1020.7
20181217160328 55 105 9.0 0.0 0.00 0.00 0.00 1020.8
20181217160128 55 94 10.0 0.0 0.00 0.00 0.00 1020.8
20181217160028 55 94 9.0 0.0 0.00 0.00 0.00 1020.8
20181217155828 55 104 10.0 0.0 0.00 0.00 0.00 1020.9
20181217155728 55 104 10.0 0.0 0.00 0.00 0.00 1020.9
20181217155528 55 93 10.0 0.0 0.00 0.00 0.00 1020.9
20181217155428 55 108 9.0 0.0 0.00 0.00 0.00 1020.9
20181217155328 55 103 12.0 0.0 0.00 0.00 0.00 1020.8
20181217155128 56 98 10.0 0.0 0.00 0.00 0.00 1020.7
20181217155028 56 93 9.0 0.0 0.00 0.00 0.00 1020.8
20181217154928 56 111 9.0 0.0 0.00 0.00 0.00 1020.9
20181217154728 56 107 8.0 0.0 0.00 0.00 0.00 1021.1
20181217154628 56 100 6.0 0.0 0.00 0.00 0.00 1021.2
20181217154128 56 87 8.0 0.0 0.00 0.00 0.00 1020.8
20181217153828 56 134 9.0 0.0 0.00 0.00 0.00 1020.9
20181217153628 56 113 9.0 0.0 0.00 0.00 0.00 1020.9
20181217153528 56 101 9.0 0.0 0.00 0.00 0.00 1020.9
20181217153428 56 118 9.0 0.0 0.00 0.00 0.00 1019.5
20181217153328 57 94 8.0 0.0 0.00 0.00 0.00 1020.9
20181217153128 56 113 8.0 0.0 0.00 0.00 0.00 1020.8
20181217153028 56 103 8.0 0.0 0.00 0.00 0.00 1020.7
20181217152928 55 129 8.0 0.0 0.00 0.00 0.00 1020.6
20181217152728 55 132 10.0 0.0 0.00 0.00 0.00 1020.4
20181217152628 55 131 8.0 0.0 0.00 0.00 0.00 1020.3
20181217152428 55 108 9.0 0.0 0.00 0.00 0.00 1020.2
20181217152328 55 107 9.0 0.0 0.00 0.00 0.00 1020.2
20181217152128 55 110 9.0 0.0 0.00 0.00 0.00 1020.2
20181217152028 55 107 10.0 0.0 0.00 0.00 0.00 1020.2
20181217151928 55 101 12.0 0.0 0.00 0.00 0.00 1020.1
20181217151828 55 121 8.0 0.0 0.00 0.00 0.00 1020.2
20181217151628 55 113 10.0 0.0 0.00 0.00 0.00 1020.2
20181217151428 55 100 10.0 0.0 0.00 0.00 0.00 1020.1
20181217151228 55 98 9.0 0.0 0.00 0.00 0.00 1020.2
20181217151128 55 98 12.0 0.0 0.00 0.00 0.00 1020.2
20181217150828 55 110 10.0 0.0 0.00 0.00 0.00 1020.2
20181217150728 55 110 9.0 0.0 0.00 0.00 0.00 1020.2
20181217150528 55 98 11.0 0.0 0.00 0.00 0.00 1020.2
20181217150428 55 89 10.0 0.0 0.00 0.00 0.00 1020.3
20181217150328 55 66 11.0 0.0 0.00 0.00 0.00 1020.3
20181217150228 55 97 11.0 0.0 0.00 0.00 0.00 1020.3
20181217150128 55 94 10.0 0.0 0.00 0.00 0.00 1020.3
20181217145928 55 114 9.0 0.0 0.00 0.00 0.00 1020.3
20181217145828 55 111 9.0 0.0 0.00 0.00 0.00 1020.3
20181217145628 55 111 9.0 0.0 0.00 0.00 0.00 1020.4
20181217145528 55 108 9.0 0.0 0.00 0.00 0.00 1020.4
20181217144828 55 93 9.0 0.0 0.00 0.00 0.00 1020.4
20181217144727 55 105 9.0 0.0 0.00 0.00 0.00 1020.4
20181217144628 55 91 8.0 0.0 0.00 0.00 0.00 1020.3
20181217144428 54 104 10.0 0.0 0.00 0.00 0.00 1020.3
20181217144328 55 87 9.0 0.0 0.00 0.00 0.00 1020.2
20181217143727 55 113 8.0 0.0 0.00 0.00 0.00 1020.7
20181217143527 55 90 9.0 0.0 0.00 0.00 0.00 1020.7
20181217143327 55 113 8.0 0.0 0.00 0.00 0.00 1020.6
20181217143128 55 115 9.0 0.0 0.00 0.00 0.00 1020.5
20181217143028 55 83 7.0 0.0 0.00 0.00 0.00 1020.5
20181217142928 55 90 7.0 0.0 0.00 0.00 0.00 1020.5
20181217142827 55 86 8.0 0.0 0.00 0.00 0.00 1020.6
20181217142627 55 69 6.0 0.0 0.00 0.00 0.00 1020.6
20181217142527 55 91 7.0 0.0 0.00 0.00 0.00 1020.6
20181217142427 55 79 7.0 0.0 0.00 0.00 0.00 1020.6
20181217142327 55 107 8.0 0.0 0.00 0.00 0.00 1020.6
20181217142127 55 111 10.0 0.0 0.00 0.00 0.00 1020.7
20181217141927 55 104 6.0 0.0 0.00 0.00 0.00 1021.0
20181217141827 55 89 6.0 0.0 0.00 0.00 0.00 1021.1
20181217141727 55 101 0.0 0.0 0.00 0.00 0.00 1021.2
20181217141627 54 101 3.0 0.0 0.00 0.00 0.00 1021.2
20181217141527 54 104 0.0 0.0 0.00 0.00 0.00 1021.1
20181217141228 54 104 0.0 0.0 0.00 0.00 0.00 1021.3
20181217140827 55 104 0.0 0.0 0.00 0.00 0.00 1021.1
20181217140728 54 104 5.0 0.0 0.00 0.00 0.00 1021.0
20181217140627 54 122 6.0 0.0 0.00 0.00 0.00 1021.0
20181217140328 54 105 5.0 0.0 0.00 0.00 0.00 1021.0
20181217140127 54 111 5.0 0.0 0.00 0.00 0.00 1020.9
20181217140028 54 90 6.0 0.0 0.00 0.00 0.00 1020.8
20181217135927 54 91 8.0 0.0 0.00 0.00 0.00 1020.7
20181217135827 54 90 6.0 0.0 0.00 0.00 0.00 1020.8
20181217135727 54 96 5.0 0.0 0.00 0.00 0.00 1020.7
20181217135627 54 75 5.0 0.0 0.00 0.00 0.00 1020.7
20181217135327 54 79 7.0 0.0 0.00 0.00 0.00 1020.6
20181217135227 54 79 6.0 0.0 0.00 0.00 0.00 1020.6
20181217135127 54 77 8.0 0.0 0.00 0.00 0.00 1020.6
20181217135027 54 84 5.0 0.0 0.00 0.00 0.00 1020.6
20181217134827 55 86 6.0 0.0 0.00 0.00 0.00 1020.6
20181217134728 55 84 7.0 0.0 0.00 0.00 0.00 1020.6
20181217134527 54 90 6.0 0.0 0.00 0.00 0.00 1020.6
20181217134428 54 89 5.0 0.0 0.00 0.00 0.00 1020.6
20181217134327 55 80 5.0 0.0 0.00 0.00 0.00 1020.6
20181217134228 55 87 5.0 0.0 0.00 0.00 0.00 1020.6
20181217134127 55 83 7.0 0.0 0.00 0.00 0.00 1020.6
20181217134027 54 73 7.0 0.0 0.00 0.00 0.00 1020.6
20181217133927 55 75 6.0 0.0 0.00 0.00 0.00 1020.6
20181217133827 55 76 5.0 0.0 0.00 0.00 0.00 1020.6
20181217133727 55 98 5.0 0.0 0.00 0.00 0.00 1020.6
20181217133627 55 83 4.0 0.0 0.00 0.00 0.00 1020.7
20181217133127 55 79 0.0 0.0 0.00 0.00 0.00 1020.9
20181217132927 55 79 0.0 0.0 0.00 0.00 0.00 1020.7
20181217132827 55 79 0.0 0.0 0.00 0.00 0.00 1020.6
20181217132727 55 66 4.0 0.0 0.00 0.00 0.00 1020.5
20181217132627 55 69 7.0 0.0 0.00 0.00 0.00 1020.5
20181217132527 55 86 7.0 0.0 0.00 0.00 0.00 1020.4
20181217132427 55 77 7.0 0.0 0.00 0.00 0.00 1020.4
20181217132327 54 83 7.0 0.0 0.00 0.00 0.00 1020.4
20181217132027 54 75 7.0 0.0 0.00 0.00 0.00 1020.4
20181217131927 54 69 6.0 0.0 0.00 0.00 0.00 1020.4
20181217131827 54 53 4.0 0.0 0.00 0.00 0.00 1020.4
20181217131727 54 63 0.0 0.0 0.00 0.00 0.00 1020.5
20181217131627 54 68 5.0 0.0 0.00 0.00 0.00 1020.4
20181217131527 54 70 4.0 0.0 0.00 0.00 0.00 1020.4
20181217131427 54 72 5.0 0.0 0.00 0.00 0.00 1020.3
20181217131327 54 75 5.0 0.0 0.00 0.00 0.00 1020.3
20181217131228 54 77 6.0 0.0 0.00 0.00 0.00 1020.3
20181217131128 54 76 6.0 0.0 0.00 0.00 0.00 1020.3
20181217131027 54 65 6.0 0.0 0.00 0.00 0.00 1020.3
20181217130827 54 86 5.0 0.0 0.00 0.00 0.00 1020.3
20181217130727 54 76 5.0 0.0 0.00 0.00 0.00 1020.2
20181217130627 54 83 6.0 0.0 0.00 0.00 0.00 1020.2
20181217130527 54 94 4.0 0.0 0.00 0.00 0.00 1020.2
20181217130427 54 80 5.0 0.0 0.00 0.00 0.00 1018.8
20181217130127 55 66 4.0 0.0 0.00 0.00 0.00 1020.2
20181217130027 55 115 5.0 0.0 0.00 0.00 0.00 1020.3
20181217125927 54 76 5.0 0.0 0.00 0.00 0.00 1020.2
20181217125827 55 93 5.0 0.0 0.00 0.00 0.00 1020.0
20181217125727 55 110 5.0 0.0 0.00 0.00 0.00 1019.9
20181217125527 54 110 6.0 0.0 0.00 0.00 0.00 1019.8
20181217125327 55 90 6.0 0.0 0.00 0.00 0.00 1020.0
20181217125227 55 86 8.0 0.0 0.00 0.00 0.00 1020.1
20181217125128 55 77 7.0 0.0 0.00 0.00 0.00 1020.1
20181217125027 55 72 7.0 0.0 0.00 0.00 0.00 1020.2
20181217124927 55 62 5.0 0.0 0.00 0.00 0.00 1020.2
20181217124828 55 77 5.0 0.0 0.00 0.00 0.00 1020.2
20181217124727 55 100 6.0 0.0 0.00 0.00 0.00 1020.3
20181217124427 55 80 5.0 0.0 0.00 0.00 0.00 1020.2
20181217124327 55 72 3.0 0.0 0.00 0.00 0.00 1020.2
20181217124228 55 65 4.0 0.0 0.00 0.00 0.00 1020.2
20181217124127 55 108 5.0 0.0 0.00 0.00 0.00 1020.1
20181217124027 55 94 5.0 0.0 0.00 0.00 0.00 1020.1
20181217123827 55 82 0.0 0.0 0.00 0.00 0.00 1020.1
20181217123727 55 82 0.0 0.0 0.00 0.00 0.00 1020.1
20181217123327 55 89 4.0 0.0 0.00 0.00 0.00 1020.1
20181217123227 55 69 5.0 0.0 0.00 0.00 0.00 1020.2
20181217123127 55 77 3.0 0.0 0.00 0.00 0.00 1020.1
20181217122927 55 58 0.0 0.0 0.00 0.00 0.00 1020.2
20181217122827 55 58 0.0 0.0 0.00 0.00 0.00 1020.2
20181217122727 55 58 0.0 0.0 0.00 0.00 0.00 1020.1
20181217122627 54 58 0.0 0.0 0.00 0.00 0.00 1020.2
20181217122527 54 58 0.0 0.0 0.00 0.00 0.00 1020.2
20181217122327 54 58 0.0 0.0 0.00 0.00 0.00 1020.3
20181217122127 54 58 0.0 0.0 0.00 0.00 0.00 1020.2
20181217121927 54 58 0.0 0.0 0.00 0.00 0.00 1020.3
20181217121827 54 58 0.0 0.0 0.00 0.00 0.00 1020.3
20181217121727 54 58 0.0 0.0 0.00 0.00 0.00 1020.3
20181217121627 54 58 0.0 0.0 0.00 0.00 0.00 1020.3
20181217121228 54 58 0.0 0.0 0.00 0.00 0.00 1020.2
20181217121027 54 58 0.0 0.0 0.00 0.00 0.00 1020.1
20181217120927 54 58 0.0 0.0 0.00 0.00 0.00 1020.1
20181217120527 54 58 0.0 0.0 0.00 0.00 0.00 1020.0
20181217120327 54 97 0.0 0.0 0.00 0.00 0.00 1020.0
20181217120127 54 77 0.0 0.0 0.00 0.00 0.00 1020.0
20181217120027 54 77 0.0 0.0 0.00 0.00 0.00 1020.0
20181217115927 54 77 0.0 0.0 0.00 0.00 0.00 1019.9
20181217115827 54 77 3.0 0.0 0.00 0.00 0.00 1020.0
20181217115727 54 69 5.0 0.0 0.00 0.00 0.00 1020.0
20181217115527 53 107 6.0 0.0 0.00 0.00 0.00 1019.9
20181217115327 53 100 6.0 0.0 0.00 0.00 0.00 1019.9
20181217115227 53 80 6.0 0.0 0.00 0.00 0.00 1019.9
20181217114928 53 96 6.0 0.0 0.00 0.00 0.00 1019.8
20181217114827 53 89 5.0 0.0 0.00 0.00 0.00 1019.8
20181217114727 53 101 5.0 0.0 0.00 0.00 0.00 1019.8
20181217114627 53 101 6.0 0.0 0.00 0.00 0.00 1019.8
20181217114527 53 65 3.0 0.0 0.00 0.00 0.00 1019.8
20181217114427 53 62 4.0 0.0 0.00 0.00 0.00 1019.7
20181217114327 53 66 4.0 0.0 0.00 0.00 0.00 1019.7
20181217114228 53 103 5.0 0.0 0.00 0.00 0.00 1019.7
20181217114127 53 90 3.0 0.0 0.00 0.00 0.00 1019.7
20181217114027 53 100 6.0 0.0 0.00 0.00 0.00 1019.6
20181217113927 53 101 6.0 0.0 0.00 0.00 0.00 1019.7
20181217113827 53 70 6.0 0.0 0.00 0.00 0.00 1019.6
20181217113627 53 75 6.0 0.0 0.00 0.00 0.00 1019.6
20181217113327 53 94 7.0 0.0 0.00 0.00 0.00 1019.6
20181217113127 53 91 7.0 0.0 0.00 0.00 0.00 1019.6
20181217112927 53 91 7.0 0.0 0.00 0.00 0.00 1019.6
20181217112827 53 96 8.0 0.0 0.00 0.00 0.00 1019.6
20181217112727 53 108 6.0 0.0 0.00 0.00 0.00 1019.6
20181217112627 54 104 8.0 0.0 0.00 0.00 0.00 1019.5
20181217112527 53 98 8.0 0.0 0.00 0.00 0.00 1019.5
20181217112427 53 117 9.0 0.0 0.00 0.00 0.00 1019.5
20181217112327 53 111 6.0 0.0 0.00 0.00 0.00 1019.5
20181217112127 53 69 7.0 0.0 0.00 0.00 0.00 1019.4
20181217112027 53 94 7.0 0.0 0.00 0.00 0.00 1019.5
20181217111927 53 87 7.0 0.0 0.00 0.00 0.00 1019.5
20181217111827 54 97 7.0 0.0 0.00 0.00 0.00 1019.5
20181217111727 53 66 7.0 0.0 0.00 0.00 0.00 1019.6
20181217111627 53 114 8.0 0.0 0.00 0.00 0.00 1019.5
20181217111527 53 118 7.0 0.0 0.00 0.00 0.00 1019.6
20181217111427 53 115 8.0 0.0 0.00 0.00 0.00 1019.5
20181217111327 54 118 9.0 0.0 0.00 0.00 0.00 1019.6
20181217111228 54 70 7.0 0.0 0.00 0.00 0.00 1019.6
20181217111127 53 93 9.0 0.0 0.00 0.00 0.00 1019.5
20181217111027 53 94 10.0 0.0 0.00 0.00 0.00 1019.6
20181217110927 53 108 7.0 0.0 0.00 0.00 0.00 1019.6
20181217110827 53 105 7.0 0.0 0.00 0.00 0.00 1019.6
20181217110727 53 93 6.0 0.0 0.00 0.00 0.00 1019.6
20181217110527 53 86 8.0 0.0 0.00 0.00 0.00 1019.6
20181217110127 53 104 6.0 0.0 0.00 0.00 0.00 1019.6
20181217105927 53 94 7.0 0.0 0.00 0.00 0.00 1019.6
20181217105827 53 80 6.0 0.0 0.00 0.00 0.00 1019.6
20181217105727 53 104 6.0 0.0 0.00 0.00 0.00 1019.6
20181217105627 53 93 5.0 0.0 0.00 0.00 0.00 1019.7
20181217105527 53 76 6.0 0.0 0.00 0.00 0.00 1019.7
20181217105227 53 73 7.0 0.0 0.00 0.00 0.00 1019.7
20181217105127 53 96 7.0 0.0 0.00 0.00 0.00 1019.7
20181217105027 53 66 7.0 0.0 0.00 0.00 0.00 1019.7
20181217104927 53 79 7.0 0.0 0.00 0.00 0.00 1019.7
20181217104827 53 69 6.0 0.0 0.00 0.00 0.00 1019.7
20181217104727 53 87 7.0 0.0 0.00 0.00 0.00 1019.8
20181217104627 53 77 8.0 0.0 0.00 0.00 0.00 1019.7
20181217104427 54 79 7.0 0.0 0.00 0.00 0.00 1019.8
20181217103927 54 72 7.0 0.0 0.00 0.00 0.00 1019.9
20181217103827 54 96 6.0 0.0 0.00 0.00 0.00 1019.9
20181217103627 54 98 7.0 0.0 0.00 0.00 0.00 1019.9
20181217103527 54 120 5.0 0.0 0.00 0.00 0.00 1019.9
20181217103327 54 63 6.0 0.0 0.00 0.00 0.00 1019.9
20181217103227 54 100 8.0 0.0 0.00 0.00 0.00 1019.9
20181217102927 54 101 8.0 0.0 0.00 0.00 0.00 1019.9
20181217102727 54 101 5.0 0.0 0.00 0.00 0.00 1019.9
20181217102627 54 87 5.0 0.0 0.00 0.00 0.00 1019.9
20181217102527 54 60 4.0 0.0 0.00 0.00 0.00 1019.9
20181217102427 54 68 0.0 0.0 0.00 0.00 0.00 1019.9
20181217102327 54 113 5.0 0.0 0.00 0.00 0.00 1019.9
20181217102127 54 73 7.0 0.0 0.00 0.00 0.00 1019.9
20181217102027 54 98 7.0 0.0 0.00 0.00 0.00 1019.9
20181217101927 54 75 7.0 0.0 0.00 0.00 0.00 1019.9
20181217101727 54 51 0.0 0.0 0.00 0.00 0.00 1020.0
20181217101627 54 51 0.0 0.0 0.00 0.00 0.00 1020.0
20181217101527 54 51 0.0 0.0 0.00 0.00 0.00 1020.0
20181217101327 55 51 0.0 0.0 0.00 0.00 0.00 1020.0
20181217101227 55 51 0.0 0.0 0.00 0.00 0.00 1020.0
20181217101127 55 51 0.0 0.0 0.00 0.00 0.00 1020.0
20181217101027 55 51 0.0 0.0 0.00 0.00 0.00 1020.0
20181217100927 55 51 0.0 0.0 0.00 0.00 0.00 1020.0
20181217100827 55 51 0.0 0.0 0.00 0.00 0.00 1020.0
20181217100727 55 51 0.0 0.0 0.00 0.00 0.00 1020.0
20181217100627 55 51 0.0 0.0 0.00 0.00 0.00 1020.0
20181217100527 55 51 0.0 0.0 0.00 0.00 0.00 1020.1
20181217100427 55 51 0.0 0.0 0.00 0.00 0.00 1020.0
20181217100227 55 51 0.0 0.0 0.00 0.00 0.00 1020.0
20181217100127 55 51 0.0 0.0 0.00 0.00 0.00 1020.0
20181217100027 56 51 0.0 0.0 0.00 0.00 0.00 1020.0
20181217095927 56 51 0.0 0.0 0.00 0.00 0.00 1020.1
20181217095827 56 51 0.0 0.0 0.00 0.00 0.00 1020.1
20181217095727 56 51 0.0 0.0 0.00 0.00 0.00 1020.1
20181217095627 56 51 0.0 0.0 0.00 0.00 0.00 1020.1
20181217095527 56 51 0.0 0.0 0.00 0.00 0.00 1020.1
20181217095227 55 51 0.0 0.0 0.00 0.00 0.00 1020.0
20181217095127 56 51 0.0 0.0 0.00 0.00 0.00 1020.0
20181217095027 56 51 0.0 0.0 0.00 0.00 0.00 1020.0
20181217094927 56 51 0.0 0.0 0.00 0.00 0.00 1020.0
20181217094827 56 51 0.0 0.0 0.00 0.00 0.00 1020.0
20181217094627 55 51 0.0 0.0 0.00 0.00 0.00 1020.0
20181217094527 55 51 0.0 0.0 0.00 0.00 0.00 1020.0
20181217094427 55 51 0.0 0.0 0.00 0.00 0.00 1020.0
20181217094327 55 51 0.0 0.0 0.00 0.00 0.00 1020.0
20181217094127 55 51 0.0 0.0 0.00 0.00 0.00 1020.1
20181217093927 55 51 0.0 0.0 0.00 0.00 0.00 1020.2
20181217093827 55 51 0.0 0.0 0.00 0.00 0.00 1020.2
20181217093727 55 51 0.0 0.0 0.00 0.00 0.00 1020.1
20181217093627 55 51 0.0 0.0 0.00 0.00 0.00 1020.2
20181217093527 55 51 0.0 0.0 0.00 0.00 0.00 1020.2
20181217093427 55 51 0.0 0.0 0.00 0.00 0.00 1020.2
20181217093227 55 51 0.0 0.0 0.00 0.00 0.00 1020.2
20181217093127 55 51 0.0 0.0 0.00 0.00 0.00 1020.2
20181217093027 55 51 0.0 0.0 0.00 0.00 0.00 1020.2
20181217092627 55 51 0.0 0.0 0.00 0.00 0.00 1020.2
20181217092227 55 51 0.0 0.0 0.00 0.00 0.00 1020.1
20181217092027 56 51 0.0 0.0 0.00 0.00 0.00 1020.1
20181217091827 56 51 0.0 0.0 0.00 0.00 0.00 1020.0
20181217091727 56 51 0.0 0.0 0.00 0.00 0.00 1020.0
20181217091527 56 51 0.0 0.0 0.00 0.00 0.00 1020.0
20181217091427 56 51 0.0 0.0 0.00 0.00 0.00 1020.0
20181217091327 56 51 0.0 0.0 0.00 0.00 0.00 1020.0
20181217091227 56 51 0.0 0.0 0.00 0.00 0.00 1019.9
20181217091127 56 51 0.0 0.0 0.00 0.00 0.00 1019.9
20181217090727 56 53 5.0 0.0 0.00 0.00 0.00 1019.9
20181217090627 56 41 5.0 0.0 0.00 0.00 0.00 1019.9
20181217090527 55 42 0.0 0.0 0.00 0.00 0.00 1019.9
20181217090427 55 37 4.0 0.0 0.00 0.00 0.00 1019.2
20181217090327 55 46 5.0 0.0 0.00 0.00 0.00 1020.0
20181217090127 55 39 5.0 0.0 0.00 0.00 0.00 1020.0
20181217085927 55 37 5.0 0.0 0.00 0.00 0.00 1020.0
20181217085827 56 10 0.0 0.0 0.00 0.00 0.00 1020.1
20181217085727 56 10 0.0 0.0 0.00 0.00 0.00 1020.0
20181217085627 56 10 0.0 0.0 0.00 0.00 0.00 1020.1
20181217085427 56 10 4.0 0.0 0.00 0.00 0.00 1020.2
20181217085227 56 314 0.0 0.0 0.00 0.00 0.00 1020.2
20181217085027 56 314 0.0 0.0 0.00 0.00 0.00 1020.2
20181217084927 55 314 0.0 0.0 0.00 0.00 0.00 1020.2
20181217084827 55 314 0.0 0.0 0.00 0.00 0.00 1020.1
20181217084627 55 314 0.0 0.0 0.00 0.00 0.00 1020.1
20181217084527 55 314 0.0 0.0 0.00 0.00 0.00 1020.1
20181217084427 55 314 0.0 0.0 0.00 0.00 0.00 1020.1
20181217084327 55 314 0.0 0.0 0.00 0.00 0.00 1020.1
20181217084227 55 314 0.0 0.0 0.00 0.00 0.00 1020.1
20181217084027 55 314 0.0 0.0 0.00 0.00 0.00 1020.0
20181217083827 55 314 0.0 0.0 0.00 0.00 0.00 1020.0
20181217083627 55 314 0.0 0.0 0.00 0.00 0.00 1020.1
20181217083427 55 314 0.0 0.0 0.00 0.00 0.00 1018.7
20181217083127 55 314 0.0 0.0 0.00 0.00 0.00 1020.1
20181217083027 55 314 0.0 0.0 0.00 0.00 0.00 1020.1
20181217082827 56 314 0.0 0.0 0.00 0.00 0.00 1020.1
20181217082627 56 314 0.0 0.0 0.00 0.00 0.00 1020.2
20181217082527 56 314 0.0 0.0 0.00 0.00 0.00 1020.2
20181217082127 56 314 0.0 0.0 0.00 0.00 0.00 1020.2
20181217082027 56 314 0.0 0.0 0.00 0.00 0.00 1020.2
20181217081927 56 314 0.0 0.0 0.00 0.00 0.00 1020.2
20181217081827 56 314 0.0 0.0 0.00 0.00 0.00 1020.2
20181217081627 56 314 0.0 0.0 0.00 0.00 0.00 1020.3
20181217081527 56 314 0.0 0.0 0.00 0.00 0.00 1020.2
20181217081427 56 314 0.0 0.0 0.00 0.00 0.00 1020.2
20181217081127 56 314 0.0 0.0 0.00 0.00 0.00 1020.1
20181217081027 56 314 0.0 0.0 0.00 0.00 0.00 1020.2
20181217080727 56 314 0.0 0.0 0.00 0.00 0.00 1020.2
20181217080427 56 314 0.0 0.0 0.00 0.00 0.00 1018.8
20181217080227 56 328 0.0 0.0 0.00 0.00 0.00 1020.1
20181217080127 56 328 0.0 0.0 0.00 0.00 0.00 1020.0
20181217075927 56 328 0.0 0.0 0.00 0.00 0.00 1020.0
20181217075827 55 328 0.0 0.0 0.00 0.00 0.00 1020.0
20181217075627 56 328 0.0 0.0 0.00 0.00 0.00 1020.0
20181217075527 56 328 0.0 0.0 0.00 0.00 0.00 1020.0
20181217075427 56 328 0.0 0.0 0.00 0.00 0.00 1019.9
20181217075327 56 328 0.0 0.0 0.00 0.00 0.00 1019.9
20181217074927 56 328 0.0 0.0 0.00 0.00 0.00 1019.9
20181217074827 56 328 0.0 0.0 0.00 0.00 0.00 1019.9
20181217074727 56 328 0.0 0.0 0.00 0.00 0.00 1019.9
20181217074527 56 326 3.0 0.0 0.00 0.00 0.00 1019.8
20181217074427 56 349 0.0 0.0 0.00 0.00 0.00 1019.8
20181217074327 56 349 0.0 0.0 0.00 0.00 0.00 1019.8
20181217073627 55 46 0.0 0.0 0.00 0.00 0.00 1019.7
20181217073527 55 46 0.0 0.0 0.00 0.00 0.00 1019.7
20181217073427 55 46 0.0 0.0 0.00 0.00 0.00 1019.7
20181217073327 55 46 0.0 0.0 0.00 0.00 0.00 1019.7
20181217073227 55 46 0.0 0.0 0.00 0.00 0.00 1019.7
20181217073127 55 46 0.0 0.0 0.00 0.00 0.00 1019.7
20181217073026 55 46 0.0 0.0 0.00 0.00 0.00 1019.6
20181217072626 55 46 0.0 0.0 0.00 0.00 0.00 1019.6
20181217072427 55 46 0.0 0.0 0.00 0.00 0.00 1019.5
20181217072326 55 46 0.0 0.0 0.00 0.00 0.00 1019.5
20181217072228 54 46 0.0 0.0 0.00 0.00 0.00 1019.5
20181217072027 54 46 0.0 0.0 0.00 0.00 0.00 1019.4
20181217071927 55 46 0.0 0.0 0.00 0.00 0.00 1019.4
20181217071826 55 46 0.0 0.0 0.00 0.00 0.00 1019.4
20181217071526 55 46 0.0 0.0 0.00 0.00 0.00 1019.4
20181217071426 55 46 0.0 0.0 0.00 0.00 0.00 1019.4
20181217071126 55 46 0.0 0.0 0.00 0.00 0.00 1019.4
20181217071026 55 46 0.0 0.0 0.00 0.00 0.00 1019.4
20181217070726 55 46 0.0 0.0 0.00 0.00 0.00 1019.3
20181217070627 55 69 5.0 0.0 0.00 0.00 0.00 1019.3
20181217070527 55 46 5.0 0.0 0.00 0.00 0.00 1019.4
20181217070426 55 66 5.0 0.0 0.00 0.00 0.00 1019.3
20181217070327 55 65 5.0 0.0 0.00 0.00 0.00 1019.3
20181217070226 55 76 6.0 0.0 0.00 0.00 0.00 1019.3
20181217070126 55 60 6.0 0.0 0.00 0.00 0.00 1019.2
20181217070026 55 63 6.0 0.0 0.00 0.00 0.00 1019.2
20181217065927 55 62 6.0 0.0 0.00 0.00 0.00 1019.1
20181217065826 55 58 7.0 0.0 0.00 0.00 0.00 1019.1
20181217065526 55 55 6.0 0.0 0.00 0.00 0.00 1019.0
20181217065427 55 69 7.0 0.0 0.00 0.00 0.00 1019.0
20181217065327 55 84 8.0 0.0 0.00 0.00 0.00 1019.0
20181217065226 56 80 7.0 0.0 0.00 0.00 0.00 1019.0
20181217065126 55 66 7.0 0.0 0.00 0.00 0.00 1019.0
20181217064926 56 49 6.0 0.0 0.00 0.00 0.00 1019.0
20181217064826 56 87 5.0 0.0 0.00 0.00 0.00 1019.0
20181217064626 56 93 7.0 0.0 0.00 0.00 0.00 1019.0
20181217064526 56 84 8.0 0.0 0.00 0.00 0.00 1019.1
20181217064426 56 69 8.0 0.0 0.00 0.00 0.00 1019.1
20181217064326 56 72 7.0 0.0 0.00 0.00 0.00 1019.1
20181217064126 56 72 7.0 0.0 0.00 0.00 0.00 1019.2
20181217063926 56 83 7.0 0.0 0.00 0.00 0.00 1019.2
20181217063726 56 68 6.0 0.0 0.00 0.00 0.00 1019.3
20181217063626 56 72 6.0 0.0 0.00 0.00 0.00 1019.3
20181217063326 56 60 0.0 0.0 0.00 0.00 0.00 1019.4
20181217063226 56 60 0.0 0.0 0.00 0.00 0.00 1019.5
20181217063126 56 60 0.0 0.0 0.00 0.00 0.00 1019.5
20181217063026 56 60 0.0 0.0 0.00 0.00 0.00 1019.5
20181217062926 56 60 0.0 0.0 0.00 0.00 0.00 1019.5
20181217062827 56 60 0.0 0.0 0.00 0.00 0.00 1019.5
20181217062726 56 60 0.0 0.0 0.00 0.00 0.00 1019.6
20181217062626 56 60 0.0 0.0 0.00 0.00 0.00 1019.6
20181217062526 56 60 0.0 0.0 0.00 0.00 0.00 1019.6
20181217062326 56 60 0.0 0.0 0.00 0.00 0.00 1019.6
20181217062226 56 60 0.0 0.0 0.00 0.00 0.00 1019.7
20181217062126 57 60 0.0 0.0 0.00 0.00 0.00 1019.7
20181217062026 57 60 0.0 0.0 0.00 0.00 0.00 1019.7
20181217061926 57 60 0.0 0.0 0.00 0.00 0.00 1019.7
20181217061826 57 60 0.0 0.0 0.00 0.00 0.00 1019.7
20181217061726 57 60 0.0 0.0 0.00 0.00 0.00 1019.7
20181217061526 57 60 0.0 0.0 0.00 0.00 0.00 1019.7
20181217061426 57 60 0.0 0.0 0.00 0.00 0.00 1019.8
20181217061126 56 60 0.0 0.0 0.00 0.00 0.00 1019.8
20181217061026 56 60 0.0 0.0 0.00 0.00 0.00 1019.8
20181217060926 56 60 0.0 0.0 0.00 0.00 0.00 1019.8
20181217060726 56 60 0.0 0.0 0.00 0.00 0.00 1019.8
20181217060626 56 60 0.0 0.0 0.00 0.00 0.00 1019.8
20181217060526 56 60 0.0 0.0 0.00 0.00 0.00 1019.9
20181217060326 56 60 0.0 0.0 0.00 0.00 0.00 1019.9
20181217060126 56 60 0.0 0.0 0.00 0.00 0.00 1019.9
20181217060026 56 60 0.0 0.0 0.00 0.00 0.00 1019.9
20181217055926 56 60 0.0 0.0 0.00 0.00 0.00 1019.9
20181217055826 56 60 0.0 0.0 0.00 0.00 0.00 1019.9
20181217055726 56 60 0.0 0.0 0.00 0.00 0.00 1019.9
20181217055527 56 60 0.0 0.0 0.00 0.00 0.00 1019.9
20181217055426 56 60 0.0 0.0 0.00 0.00 0.00 1019.9
20181217055326 57 60 0.0 0.0 0.00 0.00 0.00 1020.0
20181217055126 57 60 0.0 0.0 0.00 0.00 0.00 1020.1
20181217055026 57 60 0.0 0.0 0.00 0.00 0.00 1020.1
20181217054926 57 60 0.0 0.0 0.00 0.00 0.00 1020.1
20181217054826 56 60 0.0 0.0 0.00 0.00 0.00 1020.1
20181217054726 56 60 0.0 0.0 0.00 0.00 0.00 1020.1
20181217054426 56 60 0.0 0.0 0.00 0.00 0.00 1020.0
20181217054126 56 60 0.0 0.0 0.00 0.00 0.00 1019.9
20181217053826 56 60 0.0 0.0 0.00 0.00 0.00 1019.8
20181217053726 56 60 0.0 0.0 0.00 0.00 0.00 1019.7
20181217053626 56 60 0.0 0.0 0.00 0.00 0.00 1019.7
20181217053526 56 60 0.0 0.0 0.00 0.00 0.00 1019.7
20181217053426 56 60 0.0 0.0 0.00 0.00 0.00 1018.4
20181217053226 56 60 0.0 0.0 0.00 0.00 0.00 1019.7
20181217053126 56 60 0.0 0.0 0.00 0.00 0.00 1019.7
20181217053026 56 60 0.0 0.0 0.00 0.00 0.00 1019.7
20181217052926 56 60 0.0 0.0 0.00 0.00 0.00 1019.7
20181217052826 56 60 0.0 0.0 0.00 0.00 0.00 1019.7
20181217052726 56 60 0.0 0.0 0.00 0.00 0.00 1019.7
20181217052626 56 60 0.0 0.0 0.00 0.00 0.00 1019.7
20181217052526 56 60 0.0 0.0 0.00 0.00 0.00 1019.7
20181217052126 56 60 0.0 0.0 0.00 0.00 0.00 1019.7
20181217051826 56 72 6.0 0.0 0.00 0.00 0.00 1019.6
20181217051726 56 80 6.0 0.0 0.00 0.00 0.00 1019.5
20181217051326 56 84 7.0 0.0 0.00 0.00 0.00 1019.5
20181217051126 56 84 6.0 0.0 0.00 0.00 0.00 1019.5
20181217051026 56 70 7.0 0.0 0.00 0.00 0.00 1019.5
20181217050826 56 70 7.0 0.0 0.00 0.00 0.00 1019.6
20181217050726 56 63 6.0 0.0 0.00 0.00 0.00 1019.6
20181217050626 56 66 6.0 0.0 0.00 0.00 0.00 1019.5
20181217050426 56 53 6.0 0.0 0.00 0.00 0.00 1018.0
20181217050326 56 72 6.0 0.0 0.00 0.00 0.00 1019.5
20181217050226 56 77 7.0 0.0 0.00 0.00 0.00 1019.5
20181217050126 56 77 6.0 0.0 0.00 0.00 0.00 1019.5
20181217050026 56 87 5.0 0.0 0.00 0.00 0.00 1019.5
20181217045926 56 72 6.0 0.0 0.00 0.00 0.00 1019.5
20181217045826 56 75 7.0 0.0 0.00 0.00 0.00 1019.4
20181217045426 56 104 10.0 0.0 0.00 0.00 0.00 1019.3
20181217045226 56 82 9.0 0.0 0.00 0.00 0.00 1019.3
20181217045126 57 84 8.0 0.0 0.00 0.00 0.00 1019.4
20181217045026 57 73 9.0 0.0 0.00 0.00 0.00 1019.4
20181217044926 57 80 7.0 0.0 0.00 0.00 0.00 1019.5
20181217044826 57 70 8.0 0.0 0.00 0.00 0.00 1019.5
20181217044726 57 53 6.0 0.0 0.00 0.00 0.00 1019.5
20181217044627 57 31 0.0 0.0 0.00 0.00 0.00 1019.5
20181217044526 57 31 0.0 0.0 0.00 0.00 0.00 1019.6
20181217044426 57 31 0.0 0.0 0.00 0.00 0.00 1019.6
20181217044326 57 31 0.0 0.0 0.00 0.00 0.00 1019.7
20181217044227 57 31 0.0 0.0 0.00 0.00 0.00 1019.7
20181217043826 57 31 0.0 0.0 0.00 0.00 0.00 1019.8
20181217043726 57 31 0.0 0.0 0.00 0.00 0.00 1019.9
20181217043626 57 31 0.0 0.0 0.00 0.00 0.00 1019.9
20181217043426 58 7 0.0 0.0 0.00 0.00 0.00 1019.9
20181217043226 58 328 7.0 0.0 0.00 0.00 0.00 1019.9
20181217043026 58 315 7.0 0.0 0.00 0.00 0.00 1019.9
20181217042826 58 323 7.0 0.0 0.00 0.00 0.00 1020.0
20181217042426 58 330 7.0 0.0 0.00 0.00 0.00 1020.0
20181217042026 58 318 6.0 0.0 0.00 0.00 0.00 1020.0
20181217041826 58 311 7.0 0.0 0.00 0.00 0.00 1020.0
20181217041626 58 311 9.0 0.0 0.00 0.00 0.00 1019.9
20181217041426 58 309 6.0 0.0 0.00 0.00 0.00 1020.0
20181217041228 58 312 7.0 0.0 0.00 0.00 0.00 1020.0
20181217041126 58 302 6.0 0.0 0.00 0.00 0.00 1020.0
20181217040826 58 316 6.0 0.0 0.00 0.00 0.00 1020.0
20181217040726 58 318 7.0 0.0 0.00 0.00 0.00 1020.0
20181217040626 58 318 8.0 0.0 0.00 0.00 0.00 1020.0
20181217040526 58 321 6.0 0.0 0.00 0.00 0.00 1019.9
20181217040426 58 314 8.0 0.0 0.00 0.00 0.00 1019.9
20181217040326 58 305 8.0 0.0 0.00 0.00 0.00 1019.9
20181217040126 58 314 6.0 0.0 0.00 0.00 0.00 1019.9
20181217035926 58 308 6.0 0.0 0.00 0.00 0.00 1019.9
20181217035826 58 298 8.0 0.0 0.00 0.00 0.00 1019.9
20181217035727 58 297 7.0 0.0 0.00 0.00 0.00 1019.9
20181217035526 58 312 7.0 0.0 0.00 0.00 0.00 1019.9
20181217035426 58 318 7.0 0.0 0.00 0.00 0.00 1019.9
20181217035126 58 301 8.0 0.0 0.00 0.00 0.00 1019.8
20181217034926 58 314 9.0 0.0 0.00 0.00 0.00 1019.7
20181217034826 58 301 6.0 0.0 0.00 0.00 0.00 1019.7
20181217034626 58 314 9.0 0.0 0.00 0.00 0.00 1019.8
20181217034526 58 314 8.0 0.0 0.00 0.00 0.00 1019.8
20181217034326 58 301 7.0 0.0 0.00 0.00 0.00 1019.7
20181217034227 58 308 7.0 0.0 0.00 0.00 0.00 1019.7
20181217034026 58 295 8.0 0.0 0.00 0.00 0.00 1019.7
20181217033926 58 297 8.0 0.0 0.00 0.00 0.00 1019.7
20181217033826 58 295 8.0 0.0 0.00 0.00 0.00 1019.7
20181217033626 58 314 5.0 0.0 0.00 0.00 0.00 1019.7
20181217033526 58 293 8.0 0.0 0.00 0.00 0.00 1019.7
20181217033426 58 309 10.0 0.0 0.00 0.00 0.00 1018.5
20181217033326 58 304 7.0 0.0 0.00 0.00 0.00 1019.8
20181217033226 58 293 9.0 0.0 0.00 0.00 0.00 1019.8
20181217033126 58 281 8.0 0.0 0.00 0.00 0.00 1019.7
20181217033026 58 300 8.0 0.0 0.00 0.00 0.00 1019.7
20181217032826 58 302 9.0 0.0 0.00 0.00 0.00 1019.7
20181217032726 58 300 6.0 0.0 0.00 0.00 0.00 1019.7
20181217032226 58 305 8.0 0.0 0.00 0.00 0.00 1019.6
20181217031426 58 274 4.0 0.0 0.00 0.00 0.00 1019.6
20181217031326 58 300 7.0 0.0 0.00 0.00 0.00 1019.6
20181217031227 58 288 7.0 0.0 0.00 0.00 0.00 1019.6
20181217031126 58 271 6.0 0.0 0.00 0.00 0.00 1019.6
20181217031026 58 280 6.0 0.0 0.00 0.00 0.00 1019.6
20181217030826 58 273 7.0 0.0 0.00 0.00 0.00 1019.6
20181217030726 58 298 0.0 0.0 0.00 0.00 0.00 1019.6
20181217030526 58 308 5.0 0.0 0.00 0.00 0.00 1019.6
20181217030426 58 287 5.0 0.0 0.00 0.00 0.00 1018.2
20181217030126 58 287 7.0 0.0 0.00 0.00 0.00 1019.7
20181217025826 58 287 8.0 0.0 0.00 0.00 0.00 1019.8
20181217025626 58 278 6.0 0.0 0.00 0.00 0.00 1019.8
20181217025326 58 263 7.0 0.0 0.00 0.00 0.00 1019.7
20181217025126 58 280 8.0 0.0 0.00 0.00 0.00 1019.7
20181217025026 57 277 9.0 0.0 0.00 0.00 0.00 1019.6
20181217024926 57 274 9.0 0.0 0.00 0.00 0.00 1019.7
20181217024826 57 281 0.0 0.0 0.00 0.00 0.00 1019.6
20181217024726 57 281 0.0 0.0 0.00 0.00 0.00 1019.6
20181217024626 57 281 0.0 0.0 0.00 0.00 0.00 1019.6
20181217024326 57 281 0.0 0.0 0.00 0.00 0.00 1019.5
20181217024126 57 281 0.0 0.0 0.00 0.00 0.00 1019.5
20181217023526 58 281 0.0 0.0 0.00 0.00 0.00 1019.5
20181217023226 58 281 0.0 0.0 0.00 0.00 0.00 1019.4
20181217023126 58 281 0.0 0.0 0.00 0.00 0.00 1019.4
20181217022726 57 281 0.0 0.0 0.00 0.00 0.00 1019.5
20181217022626 57 281 0.0 0.0 0.00 0.00 0.00 1019.6
20181217022226 57 281 0.0 0.0 0.00 0.00 0.00 1019.5
20181217021926 57 281 0.0 0.0 0.00 0.00 0.00 1019.5
20181217021826 58 281 0.0 0.0 0.00 0.00 0.00 1019.4
20181217021726 58 281 0.0 0.0 0.00 0.00 0.00 1019.4
20181217021526 57 281 0.0 0.0 0.00 0.00 0.00 1019.4
20181217021326 58 281 0.0 0.0 0.00 0.00 0.00 1019.5
20181217021126 58 281 0.0 0.0 0.00 0.00 0.00 1019.5
20181217021026 58 281 0.0 0.0 0.00 0.00 0.00 1019.5
20181217020926 58 281 0.0 0.0 0.00 0.00 0.00 1019.5
20181217020626 58 281 0.0 0.0 0.00 0.00 0.00 1019.6
20181217020426 58 281 0.0 0.0 0.00 0.00 0.00 1019.7
20181217020326 58 294 6.0 0.0 0.00 0.00 0.00 1019.7
20181217020226 58 294 7.0 0.0 0.00 0.00 0.00 1019.7
20181217020126 58 274 7.0 0.0 0.00 0.00 0.00 1019.7
20181217015926 58 274 8.0 0.0 0.00 0.00 0.00 1019.7
20181217015826 58 281 7.0 0.0 0.00 0.00 0.00 1019.7
20181217015626 58 284 7.0 0.0 0.00 0.00 0.00 1019.6
20181217015526 58 284 6.0 0.0 0.00 0.00 0.00 1019.7
20181217015426 58 262 7.0 0.0 0.00 0.00 0.00 1019.6
20181217015326 58 250 5.0 0.0 0.00 0.00 0.00 1019.6
20181217015226 58 295 0.0 0.0 0.00 0.00 0.00 1019.6
20181217014726 57 295 0.0 0.0 0.00 0.00 0.00 1019.5
20181217014526 57 295 0.0 0.0 0.00 0.00 0.00 1019.4
20181217014426 57 295 0.0 0.0 0.00 0.00 0.00 1019.4
20181217014326 58 295 0.0 0.0 0.00 0.00 0.00 1019.3
20181217014226 58 295 0.0 0.0 0.00 0.00 0.00 1019.3
20181217014126 58 295 0.0 0.0 0.00 0.00 0.00 1019.3
20181217013926 58 295 0.0 0.0 0.00 0.00 0.00 1019.3
20181217013826 58 295 0.0 0.0 0.00 0.00 0.00 1019.3
20181217013626 58 295 0.0 0.0 0.00 0.00 0.00 1019.3
20181217013426 58 295 0.0 0.0 0.00 0.00 0.00 1019.3
20181217013326 58 295 0.0 0.0 0.00 0.00 0.00 1019.3
20181217013226 58 295 0.0 0.0 0.00 0.00 0.00 1019.4
20181217013126 58 295 0.0 0.0 0.00 0.00 0.00 1019.3
20181217013026 58 295 0.0 0.0 0.00 0.00 0.00 1019.3
20181217012826 58 295 0.0 0.0 0.00 0.00 0.00 1019.3
20181217012726 58 295 0.0 0.0 0.00 0.00 0.00 1019.4
20181217012626 58 295 0.0 0.0 0.00 0.00 0.00 1019.4
20181217012526 58 288 2.0 0.0 0.00 0.00 0.00 1019.4
20181217012426 58 304 5.0 0.0 0.00 0.00 0.00 1019.5
20181217012126 58 297 6.0 0.0 0.00 0.00 0.00 1019.5
20181217011826 58 323 5.0 0.0 0.00 0.00 0.00 1019.4
20181217011326 58 302 8.0 0.0 0.00 0.00 0.00 1019.4
20181217011226 58 298 6.0 0.0 0.00 0.00 0.00 1019.3
20181217011126 58 311 8.0 0.0 0.00 0.00 0.00 1019.3
20181217011026 58 297 6.0 0.0 0.00 0.00 0.00 1019.3
20181217010926 58 304 4.0 0.0 0.00 0.00 0.00 1019.3
20181217010826 58 352 0.0 0.0 0.00 0.00 0.00 1019.2
20181217010626 57 352 0.0 0.0 0.00 0.00 0.00 1019.1
20181217010526 57 352 0.0 0.0 0.00 0.00 0.00 1019.1
20181217010426 57 352 0.0 0.0 0.00 0.00 0.00 1017.8
20181217010226 57 352 0.0 0.0 0.00 0.00 0.00 1019.1
20181217010126 57 352 0.0 0.0 0.00 0.00 0.00 1019.0
20181217010026 57 352 0.0 0.0 0.00 0.00 0.00 1019.1
20181217005926 57 352 0.0 0.0 0.00 0.00 0.00 1019.0
20181217005826 57 352 0.0 0.0 0.00 0.00 0.00 1018.9
20181217005726 58 352 0.0 0.0 0.00 0.00 0.00 1018.9
20181217005626 58 352 0.0 0.0 0.00 0.00 0.00 1018.9
20181217005526 58 352 0.0 0.0 0.00 0.00 0.00 1018.8
20181217005426 58 352 0.0 0.0 0.00 0.00 0.00 1018.8
20181217005326 58 1 5.0 0.0 0.00 0.00 0.00 1018.9
20181217005226 59 328 5.0 0.0 0.00 0.00 0.00 1018.9
20181217005126 59 347 5.0 0.0 0.00 0.00 0.00 1019.0
20181217005026 58 326 5.0 0.0 0.00 0.00 0.00 1019.0
20181217004926 58 315 6.0 0.0 0.00 0.00 0.00 1019.0
20181217004826 58 325 5.0 0.0 0.00 0.00 0.00 1019.0
20181217004726 58 319 6.0 0.0 0.00 0.00 0.00 1018.9
20181217004626 58 13 0.0 0.0 0.00 0.00 0.00 1018.8
20181217004526 58 13 0.0 0.0 0.00 0.00 0.00 1018.8
20181217004226 59 17 5.0 0.0 0.00 0.00 0.00 1018.8
20181217003926 59 335 5.0 0.0 0.00 0.00 0.00 1018.9
20181217003826 59 319 4.0 0.0 0.00 0.00 0.00 1019.0
20181217003426 59 7 0.0 0.0 0.00 0.00 0.00 1017.5
20181217003326 59 7 0.0 0.0 0.00 0.00 0.00 1019.0
20181217002926 59 7 0.0 0.0 0.00 0.00 0.00 1019.0
20181217002826 59 7 0.0 0.0 0.00 0.00 0.00 1019.0
20181217002626 59 7 0.0 0.0 0.00 0.00 0.00 1018.9
20181217002526 59 7 0.0 0.0 0.00 0.00 0.00 1018.9
20181217002326 59 11 5.0 0.0 0.00 0.00 0.00 1018.9
20181217002126 60 336 0.0 0.0 0.00 0.00 0.00 1018.9
20181217001926 60 336 6.0 0.0 0.00 0.00 0.00 1019.0
20181217001826 61 322 6.0 0.0 0.00 0.00 0.00 1019.1
20181217001526 60 332 0.0 0.0 0.00 0.00 0.00 1019.1
20181217001426 60 332 0.0 0.0 0.00 0.00 0.00 1019.0
20181217001325 61 332 0.0 0.0 0.00 0.00 0.00 1019.0
20181217001226 61 332 2.0 0.0 0.00 0.00 0.00 1019.0
20181217001126 61 343 6.0 0.0 0.00 0.00 0.00 1019.0
20181217001026 61 322 6.0 0.0 0.00 0.00 0.00 1019.1
20181217000926 61 308 3.0 0.0 0.00 0.00 0.00 1019.1
20181217000826 61 291 5.0 0.0 0.00 0.00 0.00 1019.1
20181217000725 61 318 5.0 0.0 0.00 0.00 0.00 1019.2
20181217000525 62 322 5.0 0.0 0.00 0.00 0.00 1019.2
20181217000425 62 321 6.0 0.0 0.00 0.00 0.00 1017.6
20181217000326 61 308 5.0 0.0 0.00 0.00 0.00 1019.1
20181217000227 61 346 5.0 0.0 0.00 0.00 0.00 1019.1
20181216235925 61 323 7.0 0.0 0.00 0.00 0.00 1019.2
20181216235726 62 319 7.0 0.0 0.00 0.00 0.00 1019.2
20181216235626 61 325 6.0 0.0 0.00 0.00 0.00 1019.3
20181216235526 61 300 8.0 0.0 0.00 0.00 0.00 1019.3
20181216235425 61 319 8.0 0.0 0.00 0.00 0.00 1019.3
20181216235225 62 300 10.0 0.0 0.00 0.00 0.00 1019.3
20181216235125 62 301 9.0 0.0 0.00 0.00 0.00 1019.4
20181216235025 62 248 10.0 0.0 0.00 0.00 0.00 1019.5
20181216234925 62 290 14.0 0.0 0.00 0.00 0.00 1019.5
20181216234825 62 283 18.0 0.0 0.00 0.00 0.00 1019.5
20181216234725 62 280 14.0 0.0 0.00 0.00 0.00 1019.6
20181216234625 62 259 14.0 0.0 0.00 0.00 0.00 1019.5
20181216234525 62 281 16.0 0.0 0.00 0.00 0.00 1019.4
20181216234425 62 284 14.0 0.0 0.00 0.00 0.00 1019.4
20181216234325 62 276 13.0 0.0 0.00 0.00 0.00 1019.3
20181216234025 63 287 12.0 0.0 0.00 0.00 0.00 1019.1
20181216233925 64 278 8.0 0.0 0.00 0.00 0.00 1019.0
20181216233725 64 274 6.0 0.0 0.00 0.00 0.00 1018.8
20181216233525 63 257 0.0 0.0 0.00 0.00 0.00 1018.7
20181216233425 63 257 0.0 0.0 0.00 0.00 0.00 1018.7
20181216233325 63 257 0.0 0.0 0.00 0.00 0.00 1018.5
20181216233225 62 257 0.0 0.0 0.00 0.00 0.00 1018.6
20181216233125 63 257 0.0 0.0 0.00 0.00 0.00 1018.6
20181216233025 63 257 0.0 0.0 0.00 0.00 0.00 1018.5
20181216232925 63 257 0.0 0.0 0.00 0.00 0.00 1018.6
20181216232825 62 257 0.0 0.0 0.00 0.00 0.00 1018.5
20181216232725 62 257 0.0 0.0 0.00 0.00 0.00 1018.5
20181216232625 62 257 0.0 0.0 0.00 0.00 0.00 1018.6
20181216232525 63 257 0.0 0.0 0.00 0.00 0.00 1018.5
20181216232325 63 257 0.0 0.0 0.00 0.00 0.00 1018.5
20181216232225 64 257 0.0 0.0 0.00 0.00 0.00 1018.6
20181216232125 64 301 4.0 0.0 0.00 0.00 0.00 1018.6
20181216231925 63 301 6.0 0.0 0.00 0.00 0.00 1018.6
20181216231725 64 281 7.0 0.0 0.00 0.00 0.00 1018.6
20181216231625 64 271 7.0 0.0 0.00 0.00 0.00 1018.6
20181216231525 64 294 7.0 0.0 0.00 0.00 0.00 1018.5
20181216231425 64 277 6.0 0.0 0.00 0.00 0.00 1018.5
20181216231325 64 277 6.0 0.0 0.00 0.00 0.00 1018.5
20181216231226 65 302 5.0 0.0 0.00 0.00 0.00 1018.4
20181216231125 64 255 3.0 0.0 0.00 0.00 0.00 1018.4
20181216230825 65 291 5.0 0.0 0.00 0.00 0.00 1018.4
20181216230725 65 276 5.0 0.0 0.00 0.00 0.00 1018.4
20181216230525 65 284 4.0 0.0 0.00 0.00 0.00 1018.4
20181216230425 65 281 6.0 0.0 0.00 0.00 0.00 1018.2
20181216230325 65 284 0.0 0.0 0.00 0.00 0.00 1018.2
20181216230226 64 284 0.0 0.0 0.00 0.00 0.00 1018.2
20181216230025 63 284 0.0 0.0 0.00 0.00 0.00 1018.2
20181216225926 64 284 0.0 0.0 0.00 0.00 0.00 1018.2
20181216225825 64 284 3.0 0.0 0.00 0.00 0.00 1018.1
20181216225725 64 285 0.0 0.0 0.00 0.00 0.00 1018.1
20181216225625 64 285 0.0 0.0 0.00 0.00 0.00 1018.2
20181216225525 64 325 3.0 0.0 0.00 0.00 0.00 1018.1
20181216225325 64 301 0.0 0.0 0.00 0.00 0.00 1018.2
20181216225225 64 326 5.0 0.0 0.00 0.00 0.00 1018.2
20181216225125 64 308 5.0 0.0 0.00 0.00 0.00 1018.2
20181216225025 64 307 5.0 0.0 0.00 0.00 0.00 1018.2
20181216224925 64 309 6.0 0.0 0.00 0.00 0.00 1018.2
20181216224825 64 301 6.0 0.0 0.00 0.00 0.00 1018.2
20181216224725 63 329 0.0 0.0 0.00 0.00 0.00 1018.2
20181216224625 63 329 0.0 0.0 0.00 0.00 0.00 1018.2
20181216224525 63 329 0.0 0.0 0.00 0.00 0.00 1018.2
20181216224425 63 329 0.0 0.0 0.00 0.00 0.00 1018.2
20181216224325 63 329 0.0 0.0 0.00 0.00 0.00 1018.2
20181216224226 64 326 6.0 0.0 0.00 0.00 0.00 1018.2
20181216224125 64 323 6.0 0.0 0.00 0.00 0.00 1018.2
20181216224025 64 312 6.0 0.0 0.00 0.00 0.00 1018.2
20181216223926 63 339 4.0 0.0 0.00 0.00 0.00 1018.2
20181216223825 62 314 5.0 0.0 0.00 0.00 0.00 1018.2
20181216223725 63 340 5.0 0.0 0.00 0.00 0.00 1018.2
20181216223625 63 311 5.0 0.0 0.00 0.00 0.00 1018.2
20181216223525 64 328 6.0 0.0 0.00 0.00 0.00 1017.4
20181216223425 64 318 6.0 0.0 0.00 0.00 0.00 1017.4
20181216223325 64 311 6.0 0.0 0.00 0.00 0.00 1018.4
20181216223225 65 314 7.0 0.0 0.00 0.00 0.00 1018.4
20181216223125 65 309 7.0 0.0 0.00 0.00 0.00 1018.4
20181216223025 65 274 8.0 0.0 0.00 0.00 0.00 1018.4
20181216222925 64 311 7.0 0.0 0.00 0.00 0.00 1018.4
20181216222825 64 298 6.0 0.0 0.00 0.00 0.00 1018.4
20181216222725 64 325 7.0 0.0 0.00 0.00 0.00 1018.4
20181216222625 64 302 6.0 0.0 0.00 0.00 0.00 1018.4
20181216222525 64 307 6.0 0.0 0.00 0.00 0.00 1018.4
20181216222425 64 319 7.0 0.0 0.00 0.00 0.00 1018.5
20181216222325 65 298 8.0 0.0 0.00 0.00 0.00 1018.5
20181216222225 65 307 8.0 0.0 0.00 0.00 0.00 1018.5
20181216222125 65 285 7.0 0.0 0.00 0.00 0.00 1018.5
20181216222025 64 301 7.0 0.0 0.00 0.00 0.00 1018.5
20181216221925 64 311 6.0 0.0 0.00 0.00 0.00 1018.6
20181216221825 64 307 7.0 0.0 0.00 0.00 0.00 1018.6
20181216221725 64 311 10.0 0.0 0.00 0.00 0.00 1018.6
20181216221625 64 300 10.0 0.0 0.00 0.00 0.00 1018.6
20181216221525 64 288 8.0 0.0 0.00 0.00 0.00 1018.7
20181216221425 64 291 8.0 0.0 0.00 0.00 0.00 1018.7
20181216221325 64 311 10.0 0.0 0.00 0.00 0.00 1018.7
20181216221025 64 308 10.0 0.0 0.00 0.00 0.00 1018.8
20181216220925 64 290 9.0 0.0 0.00 0.00 0.00 1018.8
20181216220825 64 285 8.0 0.0 0.00 0.00 0.00 1018.9
20181216220725 64 287 11.0 0.0 0.00 0.00 0.00 1018.9
20181216220625 64 300 7.0 0.0 0.00 0.00 0.00 1018.9
20181216220525 64 287 7.0 0.0 0.00 0.00 0.00 1018.9
20181216220125 64 298 9.0 0.0 0.00 0.00 0.00 1018.9
20181216215825 65 278 7.0 0.0 0.00 0.00 0.00 1018.9
20181216215725 65 284 11.0 0.0 0.00 0.00 0.00 1018.8
20181216215625 65 280 10.0 0.0 0.00 0.00 0.00 1018.8
20181216215525 65 290 9.0 0.0 0.00 0.00 0.00 1018.8
20181216215225 64 280 10.0 0.0 0.00 0.00 0.00 1018.7
20181216215125 64 266 9.0 0.0 0.00 0.00 0.00 1018.7
20181216215025 64 294 9.0 0.0 0.00 0.00 0.00 1018.7
20181216214825 64 277 10.0 0.0 0.00 0.00 0.00 1018.6
20181216214725 64 273 8.0 0.0 0.00 0.00 0.00 1018.6
20181216214625 64 274 9.0 0.0 0.00 0.00 0.00 1018.6
20181216214525 65 290 9.0 0.0 0.00 0.00 0.00 1018.6
20181216214325 65 280 8.0 0.0 0.00 0.00 0.00 1018.6
20181216214226 65 267 8.0 0.0 0.00 0.00 0.00 1018.5
20181216214125 66 294 9.0 0.0 0.00 0.00 0.00 1018.6
20181216213825 66 273 9.0 0.0 0.00 0.00 0.00 1018.6
20181216213625 65 266 6.0 0.0 0.00 0.00 0.00 1018.6
20181216213525 65 277 9.0 0.0 0.00 0.00 0.00 1018.6
20181216213425 66 269 7.0 0.0 0.00 0.00 0.00 1018.6
20181216213325 66 291 10.0 0.0 0.00 0.00 0.00 1018.6
20181216213125 65 293 10.0 0.0 0.00 0.00 0.00 1018.5
20181216213025 67 287 9.0 0.0 0.00 0.00 0.00 1018.5
20181216212925 66 281 6.0 0.0 0.00 0.00 0.00 1018.5
20181216212825 67 245 6.0 0.0 0.00 0.00 0.00 1018.6
20181216212725 67 263 7.0 0.0 0.00 0.00 0.00 1018.5
20181216212625 67 274 8.0 0.0 0.00 0.00 0.00 1018.5
20181216212425 66 281 7.0 0.0 0.00 0.00 0.00 1018.5
20181216212325 66 274 8.0 0.0 0.00 0.00 0.00 1018.4
20181216212225 66 276 6.0 0.0 0.00 0.00 0.00 1018.4
20181216212125 66 276 6.0 0.0 0.00 0.00 0.00 1018.5
20181216211925 66 284 5.0 0.0 0.00 0.00 0.00 1018.4
20181216211725 66 287 6.0 0.0 0.00 0.00 0.00 1018.4
20181216211625 65 290 5.0 0.0 0.00 0.00 0.00 1018.4
20181216211425 66 271 5.0 0.0 0.00 0.00 0.00 1018.4
20181216211325 67 285 6.0 0.0 0.00 0.00 0.00 1018.4
20181216211226 67 278 5.0 0.0 0.00 0.00 0.00 1018.4
20181216210825 67 287 5.0 0.0 0.00 0.00 0.00 1018.4
20181216210725 66 250 7.0 0.0 0.00 0.00 0.00 1018.5
20181216210525 66 288 8.0 0.0 0.00 0.00 0.00 1018.5
20181216210426 67 277 5.0 0.0 0.00 0.00 0.00 1018.6
20181216210325 66 256 4.0 0.0 0.00 0.00 0.00 1018.6
20181216210225 66 290 6.0 0.0 0.00 0.00 0.00 1018.6
20181216210125 66 284 5.0 0.0 0.00 0.00 0.00 1018.6
20181216205925 66 267 7.0 0.0 0.00 0.00 0.00 1018.6
20181216205825 67 280 7.0 0.0 0.00 0.00 0.00 1018.6
20181216205725 67 249 5.0 0.0 0.00 0.00 0.00 1018.7
20181216205625 66 298 6.0 0.0 0.00 0.00 0.00 1018.7
20181216205525 66 270 6.0 0.0 0.00 0.00 0.00 1018.7
20181216205325 66 288 8.0 0.0 0.00 0.00 0.00 1018.7
20181216205125 67 281 7.0 0.0 0.00 0.00 0.00 1018.7
20181216205025 66 271 8.0 0.0 0.00 0.00 0.00 1018.8
20181216204925 67 293 7.0 0.0 0.00 0.00 0.00 1018.8
20181216204825 66 287 7.0 0.0 0.00 0.00 0.00 1018.8
20181216204725 66 297 6.0 0.0 0.00 0.00 0.00 1018.8
20181216204625 66 283 8.0 0.0 0.00 0.00 0.00 1018.8
20181216204525 67 287 7.0 0.0 0.00 0.00 0.00 1018.7
20181216204425 67 316 5.0 0.0 0.00 0.00 0.00 1018.8
20181216204325 67 297 0.0 0.0 0.00 0.00 0.00 1018.8
20181216204125 66 277 4.0 0.0 0.00 0.00 0.00 1018.8
20181216204025 66 248 7.0 0.0 0.00 0.00 0.00 1018.8
20181216203925 66 266 5.0 0.0 0.00 0.00 0.00 1018.8
20181216203825 66 273 6.0 0.0 0.00 0.00 0.00 1018.8
20181216203725 66 280 7.0 0.0 0.00 0.00 0.00 1018.8
20181216203625 66 270 6.0 0.0 0.00 0.00 0.00 1018.7
20181216203525 66 267 5.0 0.0 0.00 0.00 0.00 1018.7
20181216203425 66 271 6.0 0.0 0.00 0.00 0.00 1018.7
20181216203325 67 288 7.0 0.0 0.00 0.00 0.00 1018.7
20181216203225 66 266 5.0 0.0 0.00 0.00 0.00 1018.8
20181216203125 66 281 6.0 0.0 0.00 0.00 0.00 1018.8
20181216203025 66 284 6.0 0.0 0.00 0.00 0.00 1018.8
20181216202925 66 291 6.0 0.0 0.00 0.00 0.00 1018.8
20181216202825 66 280 9.0 0.0 0.00 0.00 0.00 1018.8
20181216202625 66 295 7.0 0.0 0.00 0.00 0.00 1018.8
20181216202525 65 285 7.0 0.0 0.00 0.00 0.00 1018.8
20181216202325 65 281 7.0 0.0 0.00 0.00 0.00 1018.9
20181216202125 66 298 7.0 0.0 0.00 0.00 0.00 1018.9
20181216202025 66 284 5.0 0.0 0.00 0.00 0.00 1018.9
20181216201925 66 284 8.0 0.0 0.00 0.00 0.00 1018.9
20181216201825 66 290 7.0 0.0 0.00 0.00 0.00 1018.9
20181216201725 65 295 8.0 0.0 0.00 0.00 0.00 1018.9
20181216201625 65 294 7.0 0.0 0.00 0.00 0.00 1018.9